| time (UTC) | temp F | wind direction | speed knots | gust knots | rain 1hr in | rain 24hr in | rain mn in | humidity % | barometer mb |
| 20260509213054 | 50 | 0.0 | 0.0 | 0.00 | 0.00 | 0.00 | 98 | 1014.6 | |
| 20260509212050 | 51 | 0.0 | 0.0 | 0.00 | 0.00 | 0.00 | 98 | 1014.7 | |
| 20260509211050 | 51 | 0.0 | 0.0 | 0.00 | 0.00 | 0.00 | 98 | 1014.7 | |
| 20260509210103 | 51 | 0.0 | 0.0 | 0.00 | 0.00 | 0.00 | 97 | 1014.7 | |
| 20260509205040 | 52 | 0.0 | 0.9 | 0.00 | 0.00 | 0.00 | 97 | 1014.8 | |
| 20260509204037 | 52 | 0.0 | 0.0 | 0.00 | 0.00 | 0.00 | 96 | 1014.7 | |
| 20260509203034 | 52 | 0.0 | 0.0 | 0.00 | 0.00 | 0.00 | 95 | 1014.8 | |
| 20260509202031 | 51 | 0.0 | 0.9 | 0.00 | 0.00 | 0.00 | 95 | 1014.7 | |
| 20260509201028 | 51 | 0.0 | 0.9 | 0.00 | 0.00 | 0.00 | 95 | 1014.8 | |
| 20260509200025 | 52 | 0.0 | 0.0 | 0.00 | 0.00 | 0.00 | 96 | 1014.6 | |
| 20260509195022 | 51 | 0.0 | 0.0 | 0.00 | 0.00 | 0.00 | 95 | 1014.7 | |
| 20260509193015 | 52 | 0.0 | 0.0 | 0.00 | 0.00 | 0.00 | 96 | 1014.6 | |
| 20260509192112 | 52 | 0.0 | 0.0 | 0.00 | 0.00 | 0.00 | 95 | 1014.4 | |
| 20260509191149 | 53 | 0.0 | 0.0 | 0.00 | 0.00 | 0.00 | 95 | 1014.3 | |
| 20260509190106 | 54 | 0.0 | 0.0 | 0.00 | 0.00 | 0.00 | 94 | 1014.2 | |
| 20260509185103 | 55 | 0.0 | 0.9 | 0.00 | 0.00 | 0.00 | 94 | 1014.1 | |
| 20260509183056 | 57 | 0.0 | 0.0 | 0.00 | 0.00 | 0.00 | 91 | 1014.1 | |
| 20260509182053 | 58 | 0.0 | 0.0 | 0.00 | 0.00 | 0.00 | 90 | 1014.1 | |
| 20260509181050 | 59 | 0.0 | 0.0 | 0.00 | 0.00 | 0.00 | 89 | 1014.2 | |
| 20260509180107 | 61 | 0.0 | 0.0 | 0.00 | 0.00 | 0.00 | 85 | 1014.1 | |
| 20260509174040 | 66 | 0.0 | 1.7 | 0.00 | 0.00 | 0.00 | 70 | 1014.1 | |
| 20260509172034 | 69 | 0.0 | 0.9 | 0.00 | 0.00 | 0.00 | 59 | 1014.1 | |
| 20260509171030 | 70 | 0.0 | 1.7 | 0.00 | 0.00 | 0.00 | 59 | 1014.2 | |
| 20260509170028 | 70 | 0.0 | 0.0 | 0.00 | 0.00 | 0.00 | 61 | 1014.1 | |
| 20260509164041 | 70 | 0.0 | 0.0 | 0.00 | 0.00 | 0.00 | 57 | 1014.1 | |
| 20260509163018 | 70 | 270 | 0.0 | 1.7 | 0.00 | 0.00 | 0.00 | 59 | 1014.3 |
| 20260509161112 | 70 | 85 | 0.9 | 2.6 | 0.00 | 0.00 | 0.00 | 58 | 1014.4 |
| 20260509160109 | 70 | 345 | 0.0 | 1.7 | 0.00 | 0.00 | 0.00 | 60 | 1014.3 |
| 20260509154102 | 70 | 67 | 0.9 | 3.5 | 0.00 | 0.00 | 0.00 | 60 | 1014.6 |
| 20260509152056 | 70 | 101 | 0.0 | 2.6 | 0.00 | 0.00 | 0.00 | 57 | 1014.7 |
| 20260509151053 | 70 | 0 | 0.0 | 1.7 | 0.00 | 0.00 | 0.00 | 61 | 1014.8 |
| 20260509150050 | 71 | 192 | 0.9 | 3.5 | 0.00 | 0.00 | 0.00 | 59 | 1015.0 |
| 20260509145047 | 71 | 68 | 0.0 | 1.7 | 0.00 | 0.00 | 0.00 | 58 | 1014.9 |
| 20260509144103 | 70 | 0 | 0.0 | 1.7 | 0.00 | 0.00 | 0.00 | 58 | 1015.0 |
| 20260509143040 | 70 | 322 | 0.9 | 3.5 | 0.00 | 0.00 | 0.00 | 59 | 1015.2 |
| 20260509142037 | 70 | 285 | 0.9 | 3.5 | 0.00 | 0.00 | 0.00 | 61 | 1015.2 |
| 20260509141054 | 70 | 350 | 0.9 | 2.6 | 0.00 | 0.00 | 0.00 | 59 | 1015.3 |
| 20260509135027 | 69 | 342 | 0.0 | 1.7 | 0.00 | 0.00 | 0.00 | 63 | 1015.6 |
| 20260509134024 | 70 | 90 | 0.0 | 1.7 | 0.00 | 0.00 | 0.00 | 58 | 1015.8 |
| 20260509133021 | 68 | 0.0 | 1.7 | 0.00 | 0.00 | 0.00 | 60 | 1015.9 | |
| 20260509132038 | 67 | 90 | 0.0 | 1.7 | 0.00 | 0.00 | 0.00 | 63 | 1016.0 |
| 20260509130111 | 68 | 90 | 0.0 | 2.6 | 0.00 | 0.00 | 0.00 | 59 | 1016.2 |
| 20260509125111 | 69 | 135 | 0.0 | 1.7 | 0.00 | 0.00 | 0.00 | 63 | 1016.3 |
| 20260509124105 | 69 | 142 | 0.9 | 2.6 | 0.00 | 0.00 | 0.00 | 59 | 1016.4 |
| 20260509121115 | 69 | 106 | 0.9 | 3.5 | 0.00 | 0.00 | 0.00 | 62 | 1016.6 |
| 20260509120052 | 68 | 90 | 0.0 | 2.6 | 0.00 | 0.00 | 0.00 | 60 | 1016.7 |
| 20260509112100 | 65 | 180 | 0.0 | 2.6 | 0.00 | 0.00 | 0.00 | 65 | 1017.1 |
| 20260509111037 | 65 | 180 | 0.0 | 2.6 | 0.00 | 0.00 | 0.00 | 65 | 1017.2 |
| 20260509110033 | 64 | 90 | 0.0 | 1.7 | 0.00 | 0.00 | 0.00 | 67 | 1017.3 |
| 20260509105050 | 65 | 0 | 0.9 | 2.6 | 0.00 | 0.00 | 0.00 | 68 | 1017.5 |
| 20260509104027 | 65 | 45 | 0.0 | 2.6 | 0.00 | 0.00 | 0.00 | 66 | 1017.5 |
| 20260509103024 | 65 | 270 | 0.0 | 2.6 | 0.00 | 0.00 | 0.00 | 70 | 1017.5 |
| 20260509102041 | 64 | 29 | 0.0 | 1.7 | 0.00 | 0.00 | 0.00 | 69 | 1017.5 |
| 20260509100115 | 63 | 90 | 0.0 | 1.7 | 0.00 | 0.00 | 0.00 | 72 | 1017.6 |
| 20260509095111 | 62 | 90 | 0.0 | 2.6 | 0.00 | 0.00 | 0.00 | 76 | 1017.6 |
| 20260509094108 | 61 | 75 | 0.9 | 1.7 | 0.00 | 0.00 | 0.00 | 76 | 1017.7 |
| 20260509093105 | 61 | 90 | 0.0 | 1.7 | 0.00 | 0.00 | 0.00 | 79 | 1017.7 |
| 20260509092102 | 60 | 0.0 | 0.9 | 0.00 | 0.00 | 0.00 | 77 | 1017.8 | |
| 20260509091059 | 59 | 135 | 0.0 | 2.6 | 0.00 | 0.00 | 0.00 | 79 | 1017.8 |
| 20260509090056 | 59 | 0.0 | 0.9 | 0.00 | 0.00 | 0.00 | 79 | 1018.0 | |
| 20260509085053 | 58 | 0.0 | 1.7 | 0.00 | 0.00 | 0.00 | 80 | 1018.1 | |
| 20260509084050 | 57 | 0 | 0.0 | 1.7 | 0.00 | 0.00 | 0.00 | 83 | 1018.0 |
| 20260509082043 | 56 | 0.0 | 1.7 | 0.00 | 0.00 | 0.00 | 85 | 1018.1 | |
| 20260509081120 | 55 | 0.0 | 0.0 | 0.00 | 0.00 | 0.00 | 86 | 1018.2 | |
| 20260509080037 | 56 | 225 | 0.0 | 3.5 | 0.00 | 0.00 | 0.00 | 87 | 1018.1 |
| 20260509075034 | 55 | 74 | 0.0 | 1.7 | 0.00 | 0.00 | 0.00 | 85 | 1018.1 |
| 20260509074031 | 54 | 0.0 | 0.9 | 0.00 | 0.00 | 0.00 | 85 | 1018.2 | |
| 20260509064112 | 50 | 270 | 0.0 | 1.7 | 0.00 | 0.00 | 0.00 | 93 | 1018.2 |
| 20260509063109 | 49 | 0.0 | 1.7 | 0.00 | 0.00 | 0.00 | 95 | 1018.2 | |
| 20260509062109 | 48 | 293 | 0.9 | 3.5 | 0.00 | 0.00 | 0.00 | 95 | 1018.1 |
| 20260509061122 | 47 | 0.0 | 1.7 | 0.00 | 0.00 | 0.00 | 97 | 1018.1 | |
| 20260509053110 | 46 | 0.0 | 0.9 | 0.00 | 0.00 | 0.00 | 99 | 1018.1 | |
| 20260509052046 | 46 | 0.0 | 0.0 | 0.00 | 0.00 | 0.00 | 99 | 1018.0 | |
| 20260509050040 | 43 | 0.0 | 0.0 | 0.00 | 0.00 | 0.00 | 99 | 1017.9 | |
| 20260509045037 | 43 | 0.0 | 0.0 | 0.00 | 0.00 | 0.00 | 99 | 1017.9 | |
| 20260509043031 | 41 | 0.0 | 0.0 | 0.00 | 0.00 | 0.00 | 99 | 1017.6 | |
| 20260509042027 | 40 | 0.0 | 0.0 | 0.00 | 0.00 | 0.00 | 99 | 1017.8 | |
| 20260509041024 | 40 | 0.0 | 0.0 | 0.00 | 0.00 | 0.00 | 99 | 1017.7 | |
| 20260509040021 | 39 | 0.0 | 0.0 | 0.00 | 0.00 | 0.00 | 99 | 1017.6 | |
| 20260509034135 | 39 | 0.0 | 0.0 | 0.00 | 0.00 | 0.00 | 99 | 1017.6 | |
| 20260509031126 | 40 | 0.0 | 0.0 | 0.00 | 0.00 | 0.00 | 99 | 1017.7 | |
| 20260509025059 | 40 | 0.0 | 0.0 | 0.00 | 0.00 | 0.00 | 99 | 1017.8 | |
| 20260509024056 | 40 | 0.0 | 0.0 | 0.00 | 0.00 | 0.00 | 99 | 1017.8 | |
| 20260509023053 | 40 | 0.0 | 0.0 | 0.00 | 0.00 | 0.00 | 99 | 1017.8 | |
| 20260509022049 | 40 | 0.0 | 0.0 | 0.00 | 0.00 | 0.00 | 99 | 1017.7 | |
| 20260509021127 | 40 | 0.0 | 0.0 | 0.00 | 0.00 | 0.00 | 99 | 1017.8 | |
| 20260509014037 | 40 | 0.0 | 0.0 | 0.00 | 0.00 | 0.00 | 99 | 1017.7 | |
| 20260509013034 | 40 | 0.0 | 0.0 | 0.00 | 0.00 | 0.00 | 99 | 1017.8 | |
| 20260509012031 | 40 | 0.0 | 0.0 | 0.00 | 0.00 | 0.00 | 99 | 1017.8 | |
| 20260509011047 | 40 | 0.0 | 0.0 | 0.00 | 0.00 | 0.00 | 99 | 1017.7 | |
| 20260509010025 | 41 | 0.0 | 0.0 | 0.00 | 0.00 | 0.00 | 99 | 1017.8 | |
| 20260509005022 | 41 | 0.0 | 0.0 | 0.00 | 0.00 | 0.00 | 99 | 1017.8 | |
| 20260509003015 | 41 | 0.0 | 0.0 | 0.00 | 0.00 | 0.00 | 99 | 1017.9 | |
| 20260509002112 | 41 | 0.0 | 0.0 | 0.00 | 0.00 | 0.00 | 99 | 1017.9 | |
| 20260509001129 | 41 | 0.0 | 0.0 | 0.00 | 0.00 | 0.00 | 99 | 1018.0 | |
| 20260509000106 | 41 | 0.0 | 0.0 | 0.00 | 0.00 | 0.00 | 99 | 1018.1 | |
| 20260508235103 | 41 | 0.0 | 0.0 | 0.00 | 0.00 | 0.00 | 99 | 1018.1 | |
| 20260508233056 | 42 | 0.0 | 0.0 | 0.00 | 0.00 | 0.00 | 99 | 1018.1 | |
| 20260508232113 | 42 | 0.0 | 1.7 | 0.00 | 0.01 | 0.00 | 99 | 1018.1 | |
| 20260508225043 | 43 | 0.0 | 0.9 | 0.00 | 0.01 | 0.00 | 99 | 1018.1 | |
| 20260508224100 | 44 | 0.0 | 1.7 | 0.00 | 0.01 | 0.00 | 99 | 1018.0 | |
| 20260508223037 | 44 | 0.0 | 1.7 | 0.00 | 0.01 | 0.00 | 99 | 1018.1 | |
| 20260508222034 | 44 | 0.0 | 1.7 | 0.00 | 0.01 | 0.00 | 99 | 1018.1 | |
| 20260508221031 | 44 | 0.0 | 0.0 | 0.00 | 0.01 | 0.00 | 99 | 1018.1 | |
| 20260508215017 | 44 | 0.0 | 0.0 | 0.00 | 0.01 | 0.01 | 99 | 1018.0 |